Regional Weather Roundup
Issued by NWS

Home | Current Version | Previous Version | Graphics & Text | Print | Product List | Glossary On
Versions: 1 2 3 4 5 6 7 8 9 10 11 12 13 14 15 16 17 18 19 20 21 22 23 24 25 26 27 28 29 30 31 32 33 34 35 36 37 38 39 40 41 42 43 44 45 46 47 48 49 50
000
ASUS45 KPSR 130510
RWRAZ

ARIZONA HOURLY REGIONAL WEATHER ROUNDUP
NATIONAL WEATHER SERVICE PHOENIX AZ
1000 PM MST FRI FEB 12 2016

NOTE: FAIR INDICATES FEW OR NO CLOUDS BELOW 12,000 FEET WITH NO
SIGNIFICANT WEATHER AND/OR OBSTRUCTIONS TO VISIBILITY.

AZZ001>003-036-130600-
NORTHWEST ARIZONA

CITY           SKY/WX    TMP DP  RH WIND       PRES   REMARKS
BULLHEAD CITY  CLEAR     64  32  29 N5        30.10S
KINGMAN        CLEAR     43  25  49 CALM      30.20S
$$

AZZ004>008-015-016-018-130600-
NORTH CENTRAL ARIZONA

CITY           SKY/WX    TMP DP  RH WIND       PRES   REMARKS
GRAND CANYON   CLEAR     31  23  72 NE3       30.36R
WILLIAMS       PTCLDY    36  19  51 S9        30.40S WCI  29
PRESCOTT       CLEAR     47  25  42 S7        30.27R
FLAGSTAFF      PTCLDY    30  20  66 CALM      30.37S
PAYSON         CLEAR     50  21  32 N3        30.29S
PAGE           PTCLDY    44  30  57 CALM      30.29S
$$

AZZ009>014-017-130600-
NORTHEAST ARIZONA

CITY           SKY/WX    TMP DP  RH WIND       PRES   REMARKS
WINSLOW        PTCLDY    36  18  48 SW6       30.30R WCI  31
SAINT JOHNS    CLEAR     43  15  32 S8        30.31R
WINDOW ROCK    CLEAR     33   0  24 CALM      30.38S
SHOW LOW       PTCLDY    39  16  38 CALM      30.36S
$$

AZZ023-130600-
GREATER PHOENIX AREA

CITY           SKY/WX    TMP DP  RH WIND       PRES   REMARKS
PHOENIX        CLEAR     67  30  25 SW3       30.05R
BUCKEYE        CLEAR     59  30  33 N9        30.08R
LUKE AFB       CLEAR     60  35  39 N9        30.05R
DEER VALLEY    CLEAR     64  32  30 CALM      30.07S
SCOTTSDALE     CLEAR     65  34  31 CALM      30.08S
MESA-GATEWAY   CLEAR     59  32  36 E6        30.08R
$$

AZZ027-028-130600-
SOUTHWEST MARICOPA COUNTY AND PINAL COUNTY

CITY           SKY/WX    TMP DP  RH WIND       PRES   REMARKS
CASA GRANDE    CLEAR     57  27  30 CALM      30.08S
GILA BEND      FAIR      60  29  31 S9        30.05R
$$

AZZ503-504-507>509-130600-
SOUTHEAST ARIZONA

CITY           SKY/WX    TMP DP  RH WIND       PRES   REMARKS
TUCSON         PTCLDY    63  23  21 S3        30.15R
DAVIS-MONTHAN  PTCLDY    58  25  28 S7        30.13R
NOGALES        MOCLDY    57  15  19 CALM      30.19R
SIERRA VISTA   MOCLDY    57   8  14 CALM      30.24R
DOUGLAS        MOCLDY    50   7  17 W7        30.22R
SAFFORD        PTCLDY    51  19  28 CALM      30.17S
$$

AZZ020-021-025-026-031-130600-
SOUTHWEST ARIZONA

CITY           SKY/WX    TMP DP  RH WIND       PRES   REMARKS
YUMA           NOT AVBL
$$

CAZ031-033-041-043-047-048-061-130600-
SOUTHERN CALIFORNIA

CITY           SKY/WX    TMP DP  RH WIND       PRES   REMARKS
DOWNTOWN L.A.  CLEAR     61  53  75 CALM      30.06R
L.A. AIRPORT   CLEAR     60  55  83 W6        30.07R
SAN DIEGO      CLEAR     64  45  50 CALM      30.09R
BURBANK        CLEAR     67  35  30 CALM      30.07R
ONTARIO        PTCLDY    64  40  41 CALM      30.08R
RIVERSIDE      CLEAR     65  40  39 CALM      30.09R
PALM SPRINGS   CLEAR     67  28  23 NW8       30.08R
EL CENTRO NAS  CLEAR     62  30  29 CALM      30.06R
IMPERIAL       CLEAR     57  35  43 W5        30.03R
BLYTHE         CLEAR     60  25  26 NW8       30.05S
NEEDLES        CLEAR     64  25  22 NW6       30.10R
$$

NVZ020-UTZ003-130600-
SOUTHERN NEVADA-UTAH

CITY           SKY/WX    TMP DP  RH WIND       PRES   REMARKS
LAS VEGAS      PTCLDY    59  25  27 CALM      30.13R
SALT LAKE CITY CLOUDY    30  28  92 W3        30.33S FOG
$$

NMZ009-TXZ055-130600-
NEW MEXICO-WEST TEXAS

CITY           SKY/WX    TMP DP  RH WIND       PRES   REMARKS
ALBUQUERQUE    CLOUDY    49  18  29 CALM      30.32R
EL PASO        PTCLDY    49  15  25 E8        30.25S
$$


........................KEY........................
SKY/WX - SKY CONDITION/WEATHER
TMP    - TEMPERATURE IN FAHRENHEIT
DP     - DEW POINT IN FAHRENHEIT
RH     - RELATIVE HUMIDITY IN PERCENT
WIND   - DIRECTION AND SPEED IN MILES PER HOUR (MPH)
VRB    - VARIABLE WIND DIRECTION
PRES   - MEAN SEA LEVEL PRESSURE IN INCHES OF MERCURY
         F - FALLING PRESSURE   R - RISING PRESSURE
         S - STEADY PRESSURE
VSB    - VISIBILITY IN MILES
HX     - HEAT INDEX IN FAHRENHEIT
WCI    - WIND CHILL INDEX IN FAHRENHEIT
TC     - TEMPERATURE IN CELSIUS WHICH IS ALSO KNOWN AS
         TEMPERATURE IN CENTIGRADE
AFB    - AIR FORCE BASE
         LUKE AFB IS LUKE AIR FORCE BASE
         DAVIS-MONTHAN IS DAVIS-MONTHAN AIR FORCE BASE
NAS    - NAVAL AIR STATION
         EL CENTRO NAS IS EL CENTRO NAVAL AIR STATION
N/A    - NOT AVAILABLE




USA.gov is the U.S. government's official web portal to all federal, state and local government web resources and services.